Location: *
(49.5667°N, 1.3667°W)
Time: 14:42:30
(UTC+00:00)

NOSS 3-3 (A) - Pass Details

Date: 20 September 2019
Orbit: 849 x 1363 km, 63.4° (Epoch: 08 October)

Event Time Altitude Azimuth Distance (km) Brightness Sun altitude
Rises 18:29:55 0° 218° (SW) 3,472 7.4 -4.3°
Reaches altitude 10° 18:32:18 10° 218° (SW) 2,576 6.7 -4.6°
Maximum altitude 18:38:17 86° 132° (SE) 980 4.1 -5.6°
Drops below altitude 10° 18:45:05 10° 43° (NE) 2,905 6.2 -6.7°
Sets 18:47:54 0° 43° (NE) 3,944 6.8 -7.2°
